User: anonymous   Login
Location: Bretagne
(43.8474°N, 0.4650°W)
Time: 20:24:13
(UTC+00:00)
Language:

Cosmos 292 Rocket - Orbit

View from above orbital plane
View from above orbital plane
View from above satellite
View from above satellite

Ground track
Ground track

The orbit is defined by the following mean orbital elements,

1 04071U          26073.59668058 +.00000000 +00000-0 +12418-3 0 00009
2 04071  74.0468 118.9866 0013968 348.4626  11.6221 14.66586224    09
Epoch (UTC): 14 March 2026 14:19:13
Eccentricity: 0.0013968
inclination: 74.0468°
perigee height: 662 km
apogee height: 682 km
right ascension of ascending node: 118.9866°
argument of perigee: 348.4626°
revolutions per day: 14.66586224
mean anomaly at epoch: 11.6221°

The dashed part of the orbit path shows where the satellite is in the earth's shadow,  

DLR